When you browse on this site, cookies collect data to enhance your experience and personalize the content and advertising you see.
Visit our Privacy Policy to learn more. By continuing to use the site, you agree to this use of cookies and data.
  • In Hungary
  • List of Countries
  • For 7 days
  • Water Temperature
  • Weather Map
  • News
  • Weather Widgets
  • user-avatar
    Login

    Hourly Weather Hilo

    Today, 14 November, Thursday

    Time Temperature Precipitation Wind Pressure Humidity
    00:00 +25°C° 0 mm 1 mps 749 mmHg 90%
    01:00 +25°C° 0 mm 1 mps 748 mmHg 90%
    02:00 +24°C° 0 mm 1 mps 747 mmHg 90%
    03:00 +24°C° 0 mm 1 mps 748 mmHg 89%
    04:00 +24°C° 0 mm 1 mps 748 mmHg 88%
    05:00 +24°C° 0 mm 1 mps 748 mmHg 87%
    06:00 +25°C° 0 mm 1 mps 748 mmHg 82%
    07:00 +26°C° 0 mm 1 mps 748 mmHg 77%
    08:00 +27°C° 0 mm 1 mps 748 mmHg 72%
    09:00 +28°C° 0 mm 2 mps 748 mmHg 69%
    10:00 +29°C° 0 mm 2 mps 748 mmHg 67%
    11:00 +30°C° 0 mm 3 mps 748 mmHg 64%
    12:00 +30°C° 0 mm 3 mps 748 mmHg 66%
    13:00 +30°C° 0 mm 3 mps 747 mmHg 68%
    14:00 +30°C° 0 mm 4 mps 746 mmHg 70%
    15:00 +29°C° 0 mm 4 mps 746 mmHg 74%
    16:00 +28°C° 0 mm 3 mps 746 mmHg 79%
    17:00 +28°C° 0 mm 3 mps 747 mmHg 84%
    18:00 +27°C° 0 mm 3 mps 747 mmHg 85%
    19:00 +26°C° 0 mm 3 mps 748 mmHg 86%
    20:00 +26°C° 0 mm 3 mps 748 mmHg 87%
    21:00 +26°C° 0 mm 3 mps 748 mmHg 83%
    22:00 +25°C° 0 mm 3 mps 748 mmHg 78%
    23:00 +25°C° 0 mm 3 mps 748 mmHg 74%

    Tomorrow, 15 November, Friday

    Time Temperature Precipitation Wind Pressure Humidity
    00:00 +25°C° 0 mm 3 mps 748 mmHg 69%
    01:00 +25°C° 0 mm 3 mps 748 mmHg 64%
    02:00 +25°C° 0 mm 3 mps 747 mmHg 60%
    03:00 +25°C° 0 mm 2 mps 747 mmHg 56%
    04:00 +25°C° 0 mm 2 mps 747 mmHg 52%
    05:00 +25°C° 0 mm 2 mps 747 mmHg 48%
    06:00 +26°C° 0 mm 1 mps 748 mmHg 47%
    07:00 +27°C° 0 mm 1 mps 748 mmHg 46%
    08:00 +29°C° 0 mm 1 mps 749 mmHg 45%
    09:00 +29°C° 0 mm 1 mps 749 mmHg 50%
    10:00 +30°C° 0 mm 1 mps 749 mmHg 55%
    11:00 +31°C° 0 mm 2 mps 749 mmHg 60%
    12:00 +31°C° 0.3 mm 2 mps 748 mmHg 66%
    13:00 +30°C° 0.3 mm 2 mps 747 mmHg 72%
    14:00 +30°C° 0.3 mm 2 mps 747 mmHg 77%
    15:00 +30°C° 0.3 mm 2 mps 747 mmHg 81%
    16:00 +29°C° 0.3 mm 1 mps 747 mmHg 84%
    17:00 +28°C° 0.3 mm 1 mps 747 mmHg 87%
    18:00 +28°C° 1 mm 1 mps 747 mmHg 89%
    19:00 +27°C° 1 mm 1 mps 748 mmHg 91%
    20:00 +27°C° 1 mm 1 mps 748 mmHg 93%
    21:00 +27°C° 0.7 mm 1 mps 748 mmHg 92%
    22:00 +27°C° 0.7 mm 1 mps 748 mmHg 91%
    23:00 +26°C° 0.7 mm 1 mps 749 mmHg 91%

    Day after tomorrow, 16 November, Saturday

    Time Temperature Precipitation Wind Pressure Humidity
    00:00 +26°C° 0 mm 1 mps 748 mmHg 91%
    01:00 +26°C° 0 mm 1 mps 748 mmHg 91%
    02:00 +26°C° 0 mm 1 mps 747 mmHg 92%
    03:00 +26°C° 0.1 mm 1 mps 747 mmHg 91%
    04:00 +26°C° 0.1 mm 1 mps 747 mmHg 90%
    05:00 +26°C° 0.1 mm 1 mps 747 mmHg 90%
    06:00 +26°C° 0 mm 2 mps 747 mmHg 85%
    07:00 +27°C° 0 mm 2 mps 748 mmHg 79%
    08:00 +28°C° 0 mm 2 mps 748 mmHg 74%
    09:00 +28°C° 0 mm 3 mps 748 mmHg 73%
    10:00 +29°C° 0 mm 3 mps 748 mmHg 72%
    11:00 +30°C° 0 mm 4 mps 748 mmHg 71%
    12:00 +30°C° 0.1 mm 4 mps 747 mmHg 73%
    13:00 +30°C° 0.1 mm 4 mps 746 mmHg 75%
    14:00 +30°C° 0.1 mm 5 mps 746 mmHg 77%
    15:00 +29°C° 0.4 mm 4 mps 746 mmHg 80%
    16:00 +29°C° 0.4 mm 4 mps 746 mmHg 84%
    17:00 +28°C° 0.4 mm 3 mps 746 mmHg 87%
    18:00 +27°C° 0.2 mm 4 mps 747 mmHg 87%
    19:00 +27°C° 0.2 mm 4 mps 747 mmHg 88%
    20:00 +27°C° 0.2 mm 4 mps 747 mmHg 88%
    21:00 +26°C° 0.3 mm 4 mps 747 mmHg 90%
    22:00 +26°C° 0.3 mm 3 mps 747 mmHg 91%
    23:00 +26°C° 0.3 mm 3 mps 747 mmHg 92%

    17 November, Sunday

    Time Temperature Precipitation Wind Pressure Humidity
    00:00 +26°C° 0.4 mm 3 mps 747 mmHg 93%
    01:00 +26°C° 0.4 mm 2 mps 746 mmHg 93%
    02:00 +25°C° 0.4 mm 2 mps 746 mmHg 93%
    03:00 +25°C° 0.1 mm 2 mps 746 mmHg 93%
    04:00 +25°C° 0.1 mm 2 mps 746 mmHg 92%
    05:00 +25°C° 0.1 mm 1 mps 746 mmHg 92%
    06:00 +26°C° 0.1 mm 1 mps 746 mmHg 91%
    07:00 +26°C° 0.1 mm 1 mps 746 mmHg 90%
    08:00 +26°C° 0.1 mm 1 mps 747 mmHg 89%
    09:00 +27°C° 0.1 mm 2 mps 747 mmHg 85%
    10:00 +27°C° 0.1 mm 2 mps 747 mmHg 81%
    11:00 +28°C° 0.1 mm 2 mps 746 mmHg 78%
    12:00 +28°C° 0.2 mm 3 mps 746 mmHg 78%
    13:00 +28°C° 0.2 mm 3 mps 745 mmHg 77%
    14:00 +28°C° 0.2 mm 3 mps 745 mmHg 77%
    15:00 +27°C° 0.1 mm 3 mps 745 mmHg 80%
    16:00 +27°C° 0.1 mm 2 mps 745 mmHg 83%
    17:00 +26°C° 0.1 mm 2 mps 745 mmHg 86%
    18:00 +26°C° 0 mm 2 mps 745 mmHg 86%
    19:00 +25°C° 0 mm 2 mps 746 mmHg 86%
    20:00 +25°C° 0 mm 1 mps 746 mmHg 87%
    21:00 +25°C° 0 mm 1 mps 746 mmHg 84%
    22:00 +25°C° 0 mm 2 mps 746 mmHg 82%
    23:00 +24°C° 0 mm 2 mps 746 mmHg 79%

    18 November, Monday

    Time Temperature Precipitation Wind Pressure Humidity
    00:00 +24°C° 0 mm 1 mps 746 mmHg 79%
    01:00 +24°C° 0 mm 1 mps 745 mmHg 79%
    02:00 +24°C° 0 mm 1 mps 745 mmHg 79%
    03:00 +24°C° 0 mm 1 mps 745 mmHg 79%
    04:00 +24°C° 0 mm 1 mps 745 mmHg 79%
    05:00 +24°C° 0 mm 1 mps 745 mmHg 78%
    06:00 +25°C° 0.1 mm 2 mps 745 mmHg 77%
    07:00 +25°C° 0.1 mm 2 mps 746 mmHg 76%
    08:00 +26°C° 0.1 mm 2 mps 746 mmHg 74%
    09:00 +26°C° 1 mm 2 mps 746 mmHg 74%
    10:00 +27°C° 1 mm 3 mps 746 mmHg 74%
    11:00 +27°C° 1 mm 3 mps 746 mmHg 73%
    12:00 +27°C° 0.6 mm 3 mps 746 mmHg 74%
    13:00 +27°C° 0.6 mm 3 mps 745 mmHg 75%
    14:00 +27°C° 0.6 mm 4 mps 745 mmHg 75%
    15:00 +27°C° 0.2 mm 3 mps 745 mmHg 80%
    16:00 +26°C° 0.2 mm 3 mps 745 mmHg 84%
    17:00 +25°C° 0.2 mm 3 mps 745 mmHg 88%
    18:00 +25°C° 0.1 mm 2 mps 745 mmHg 88%
    19:00 +25°C° 0.1 mm 2 mps 746 mmHg 88%
    20:00 +24°C° 0.1 mm 1 mps 746 mmHg 87%
    21:00 +24°C° 0.1 mm 2 mps 746 mmHg 86%
    22:00 +24°C° 0.1 mm 2 mps 746 mmHg 84%
    23:00 +24°C° 0.1 mm 2 mps 746 mmHg 83%

    19 November, Tuesday

    Time Temperature Precipitation Wind Pressure Humidity
    00:00 +24°C° 0 mm 1 mps 746 mmHg 82%
    01:00 +23°C° 0 mm 1 mps 746 mmHg 81%
    02:00 +23°C° 0 mm 1 mps 745 mmHg 81%
    03:00 +23°C° 0 mm 1 mps 745 mmHg 81%
    04:00 +23°C° 0 mm 1 mps 745 mmHg 82%
    05:00 +23°C° 0 mm 1 mps 745 mmHg 82%
    06:00 +24°C° 0 mm 1 mps 746 mmHg 79%
    07:00 +25°C° 0 mm 1 mps 746 mmHg 76%
    08:00 +25°C° 0 mm 1 mps 746 mmHg 73%
    09:00 +26°C° 0 mm 2 mps 746 mmHg 72%
    10:00 +27°C° 0 mm 2 mps 746 mmHg 70%
    11:00 +28°C° 0 mm 3 mps 746 mmHg 69%
    12:00 +28°C° 0.1 mm 3 mps 746 mmHg 71%
    13:00 +28°C° 0.1 mm 3 mps 745 mmHg 74%
    14:00 +27°C° 0.1 mm 3 mps 745 mmHg 76%
    15:00 +27°C° 0.1 mm 3 mps 745 mmHg 79%
    16:00 +26°C° 0.1 mm 2 mps 745 mmHg 82%
    17:00 +26°C° 0.1 mm 2 mps 745 mmHg 85%
    18:00 +25°C° 0 mm 2 mps 746 mmHg 85%
    19:00 +25°C° 0 mm 2 mps 746 mmHg 84%
    20:00 +25°C° 0 mm 2 mps 747 mmHg 83%
    21:00 +24°C° 0 mm 1 mps 747 mmHg 81%
    22:00 +24°C° 0 mm 1 mps 747 mmHg 78%
    23:00 +24°C° 0 mm 1 mps 747 mmHg 75%
    Show more